Location: Unspecified
(0.0000°N, 0.0000°E)
Time: 16:38:10
(UTC+00:00)

CRYOSAT 2 - Visible Passes

Search period start: 24 June 2021 00:00
Search period end: 04 July 2021 00:00
Orbit: 714 x 724 km, 92.0° (Epoch: 24 June)

Date Brightness Start Highest point End Pass type
(mag) Time Alt. Az. Time Alt. Az. Time Alt. Az.
24 Jun 5.1 18:20:06 10° SSE 18:24:24 32° E 18:28:41 10° NNE visible
24 Jun 7.2 20:00:59 10° WSW 20:02:55 12° W 20:04:51 10° WNW visible
25 Jun 5.2 19:07:59 10° S 19:12:42 52° W 19:17:24 10° NNW visible
26 Jun 7.4 19:59:55 10° WSW 20:00:59 11° W 20:02:02 10° W visible
27 Jun 5.4 19:06:08 10° SSW 19:10:46 45° W 19:15:23 10° NNW visible
29 Jun 5.7 19:04:17 10° SSW 19:08:49 40° W 19:13:21 10° NNW visible
01 Jul 6.0 19:02:27 10° SSW 19:06:53 35° W 19:11:17 10° NNW visible
03 Jul 6.2 19:00:39 10° SSW 19:04:56 31° W 19:09:12 10° NW visible
